Location: Newark
(15.4608°S, 41.1635°W)
Time: 14:44:30
(UTC+00:00)

Envisat - Pass Details

Date: 27 June 2021
Orbit: 764 x 766 km, 98.1° (Epoch: 25 July)

Event Time Altitude Azimuth Distance (km) Brightness Sun altitude
Rises 20:44:35 0° 191° (S) 3,246 6.1 -5.3°
Reaches altitude 10° 20:47:24 10° 206° (SSW) 2,314 5.5 -5.9°
Maximum altitude 20:51:10 21° 254° (WSW) 1,662 5.5 -6.8°
Drops below altitude 10° 20:54:56 10° 302° (WNW) 2,299 7.1 -7.6°
Sets 20:57:44 0° 318° (NW) 3,218 7.6 -8.2°
